Location: Franzen
(48.6167°N, 15.3833°E)
Time: 09:00:21
(UTC+00:00)

A-11 Canister half - Pass Details

Date: 02 August 2021
Orbit: 1515 x 1685 km, 47.2° (Epoch: 21 September)

Event Time Altitude Azimuth Distance (km) Brightness Sun altitude
Rises 22:41:46 0° 290° (WNW) 4,922 12.0 -23.7°
Reaches altitude 10° 22:45:32 10° 279° (W) 3,943 11.3 -23.7°
Maximum altitude 22:53:27 27° 228° (SW) 2,824 10.0 -23.8°
Enters shadow 22:54:42 26° 216° (SW) 2,856 10.0 -23.8°
Drops below altitude 10° 23:01:22 10° 175° (S) 3,928 - -23.9°
Sets 23:05:08 0° 164° (SSE) 4,899 - -23.9°
